Voltar ao catálogo

CZ-3 DEB

AtivoHEO
NORAD 28984·DEBRIS·🇨🇳 China

Lançado Feb 4, 1990 de Xichang Satellite Launch Center

Loading…

Próximas Passagens (próximas 24 horas)

TLE

AtualizadoSource: Space-Track

Época: Sep 5, 2026, 11:58 UTC

1 28984U 90011C   26248.49870837  .00002940  00000-0  78506-2 0  9993
2 28984  29.6366  29.2071 4666086 264.7349  42.4111  5.81992508 37478

Acompanhe CZ-3 DEB em tempo real com AllMySat

Download on the App Store